Temp
46 46 46 46 46 47 47 46 45 43 44 49 49 50 50 50 51 49 49 52 44 36 37 34 39 42 39 44 33 32 32 32 32 32 32 28 28 33 31 34 32 30 28 28 27 25 25 46 45 38 47 50 50 51
46 46 46 46 46 46 47 46 46 44 43 43 48 49 49 49 50 50 41 48 45 40 35 35 40 41 49 56 41 37 41 38 37 32 33 32 30 33 33 26 39 29 37 32 34 34 43 48 48 51 52 49 49 50
46 46 46 46 46 46 46 46 46 46 44 43 43 49 49 50 49 48 41 41 39 35 35 33 32 37 44 49 55 37 40 37 37 41 36 34 28 36 29 28 31 35 39 34 34 39 43 47 50 52 52 50 50 50
45 45 45 45 45 45 46 46 46 46 46 43 42 46 49 50 49 45 40 39 40 37 32 30 37 34 41 46 47 48 39 39 39 40 33 31 27 32 28 31 31 36 38 36 37 42 44 47 49 51 50 49 48 49
45 45 45 45 45 45 45 45 45 46 46 46 43 41 44 44 44 41 39 40 42 38 31 31 39 39 39 40 40 40 39 40 39 36 32 30 35 35 36 38 34 41 38 36 35 44 45 46 50 51 48 47 49 48
45 45 45 45 45 45 45 45 45 46 46 46 45 43 43 43 41 40 33 40 43 40 35 28 35 35 40 43 43 44 46 44 42 37 35 37 38 37 33 34 41 44 47 49 43 49 49 48 49 50 48 48 49 48
45 45 45 45 45 45 45 45 45 45 46 46 46 45 44 44 43 36 34 38 43 43 35 29 30 36 41 44 44 43 43 39 41 40 38 40 39 41 37 34 42 44 46 46 48 46 42 45 44 48 47 48 46 48
44 44 44 44 45 45 44 45 45 45 45 46 45 45 45 45 46 39 42 43 42 42 40 29 27 32 43 37 34 41 37 39 37 38 40 38 40 41 34 41 43 45 45 44 45 48 48 48 47 46 48 47 45 46
44 44 44 44 44 44 44 44 45 45 45 45 45 45 47 41 37 42 44 43 43 40 31 30 26 24 40 35 36 37 39 29 38 34 37 41 35 32 37 40 42 44 44 45 47 47 47 44 45 46 45 46 44 44
44 44 44 44 44 44 44 44 44 45 44 45 49 40 34 42 43 43 41 37 36 39 39 30 37 27 37 36 32 34 37 34 30 34 40 36 35 39 40 43 46 45 46 47 41 40 42 42 43 43 43 44 42 41
44 44 44 44 44 44 44 44 44 45 47 45 37 37 45 45 47 39 32 33 35 30 37 37 39 33 40 33 31 37 32 35 27 31 33 31 33 38 38 39 45 46 47 46 46 46 46 44 42 41 40 40 40 39
44 44 44 44 44 45 44 44 44 46 42 39 39 43 46 40 36 31 28 33 33 27 34 34 32 34 37 44 35 36 31 34 25 36 30 28 35 36 35 34 39 44 44 43 44 42 41 39 39 39 38 38 37 37
43 44 44 44 44 44 44 44 43 43 43 46 41 34 36 34 27 26 21 28 27 31 32 33 29 35 38 40 33 32 26 26 35 28 28 35 36 35 34 35 35 38 38 39 40 40 39 38 38 36 35 36 35 35
43 43 43 43 43 44 44 44 43 43 45 37 33 26 28 26 27 29 34 34 31 37 36 37 33 35 36 32 33 26 30 32 25 23 27 33 34 33 34 34 34 34 35 36 36 37 36 35 34 34 32 33 32 32
43 43 42 42 43 43 44 43 41 45 39 31 34 24 26 29 30 30 32 33 36 40 37 34 33 35 30 27 32 29 23 23 28 28 34 36 34 33 32 33 34 34 32 32 33 32 31 31 32 31 31 31 32 30
43 42 41 42 43 43 43 44 43 42 36 34 32 28 31 32 30 33 34 30 38 39 39 38 31 29 26 30 27 26 26 24 31 36 39 35 36 37 36 35 34 34 34 33 33 32 31 30 30 30 29 30 30 30
41 40 41 42 42 42 41 42 40 30 33 30 28 30 33 34 32 34 38 36 40 37 31 34 26 23 32 29 28 35 30 34 37 36 40 40 38 36 35 34 32 32 32 32 31 30 29 30 30 30 29 30 30 30
40 42 42 42 42 41 40 39 34 31 28 31 30 30 33 34 34 34 36 34 37 37 36 30 36 29 27 26 30 35 35 33 38 38 39 39 38 35 35 35 33 34 32 30 29 30 29 29 31 32 30 30 30 31
41 42 41 41 40 36 30 32 33 27 28 31 32 33 34 34 35 35 37 34 39 42 37 35 27 30 32 36 35 34 33 35 32 34 33 33 32 32 31 32 31 30 30 30 30 31 32 29 33 33 32 32 31 31
40 40 40 40 39 32 29 31 34 29 27 30 31 30 34 33 34 32 31 32 36 36 32 29 32 35 37 39 40 38 37 36 34 30 31 32 32 30 31 33 34 32 31 30 32 31 32 31 31 31 32 31 30 30
40 41 40 41 39 35 30 30 31 32 32 28 30 30 32 32 32 32 32 35 32 33 32 37 33 35 34 34 37 41 39 38 37 38 35 30 32 32 32 34 33 32 31 30 31 29 30 31 31 31 30 30 31 31
40 39 39 38 31 30 29 35 31 34 30 31 30 32 29 27 28 29 35 31 31 26 26 26 27 28 32 33 34 36 37 39 37 35 34 33 30 32 32 32 32 30 31 31 32 31 30 33 32 31 30 30 30 31
38 38 35 33 25 25 25 36 28 30 23 28 29 25 26 27 31 35 28 24 22 24 25 26 26 28 28 32 32 33 33 36 36 35 34 34 34 34 32 32 33 32 30 31 32 31 31 28 30 29 30 30 30 30
36 31 25 25 26 19 28 25 31 29 30 27 25 22 26 27 30 28 17 18 20 24 23 23 26 28 32 30 29 29 30 34 34 34 35 33 31 31 32 30 32 32 33 32 32 30 29 28 26 30 29 28 29 29
24 20 22 17 24 20 18 20 21 23 19 22 21 21 21 25 18 15 14 17 17 17 19 21 24 23 23 24 25 25 25 28 31 30 31 34 32 31 29 29 28 29 31 29 28 27 26 26 27 27 27 28 27 28
15 17 18 17 19 18 19 16 17 17 19 17 17 21 23 20 14 11 13 16 17 17 17 17 18 19 18 19 19 20 21 25 28 25 23 27 29 30 27 26 25 23 27 28 28 26 26 26 26 25 26 26 26 27
13 15 22 26 24 23 20 20 22 18 12 12 16 15 16 9 8 13 18 18 18 18 19 19 19 18 17 17 19 20 23 23 23 21 21 21 21 22 25 26 23 20 23 23 24 25 25 25 25 26 26 27 28 27
18 19 13 16 17 20 12 14 12 11 14 19 18 11 8 9 10 16 17 19 19 20 19 18 18 18 17 16 17 18 20 21 20 20 20 19 19 18 18 17 16 15 17 17 20 21 22 22 23 23 24 25 26 28
16 19 18 6 11 15 14 14 15 18 19 19 14 14 14 16 17 19 19 19 20 19 16 15 15 17 18 19 18 18 17 17 19 16 16 15 16 16 18 18 18 18 18 19 16 16 18 19 21 22 23 24 26 26
13 19 13 7 8 11 15 16 17 16 19 19 20 19 17 16 17 19 19 18 17 15 14 14 14 14 12 13 13 15 15 15 15 14 14 14 14 17 17 18 18 17 17 17 17 18 17 19 20 21 21 22 23 25
16 17 13 14 12 15 14 10 11 11 14 16 15 15 15 15 16 18 18 17 16 15 15 14 14 14 13 11 12 12 13 15 12 13 12 14 16 17 18 17 17 17 16 15 15 16 16 16 18 19 19 19 20 19
14 11 11 9 11 11 12 13 12 14 13 14 14 14 12 12 10 14 17 16 14 14 9 12 13 14 13 13 11 12 6 10 12 12 11 13 15 16 16 16 15 14 14 13 14 14 14 14 15 16 17 17 18 17
7 9 8 10 11 10 10 10 10 9 11 11 11 9 11 10 8 15 15 16 17 16 15 15 16 14 12 9 10 10 6 12 10 8 7 7 6 9 12 14 13 12 11 11 12 13 12 13 13 14 14 13 12 12
MSLP
998.15 996.97 995.69 994.35 993.13 991.84 990.69 989.77 988.70 987.97 987.18 986.56 986.64 986.96 987.46 988.18 988.91 989.75 990.04 990.64 991.15 991.84 992.00 991.81 990.14 989.06 989.85 989.10 991.01 994.42 995.76 997.50 997.84 998.26 999.07 1000.57 1001.08 1001.66 1001.58 1002.48 1002.42 1002.58 1003.23 1004.09 1004.61 1003.88 1002.67 1002.42 1002.89 1002.66 1002.32 1003.24 1003.55 1003.79
998.61 997.56 996.42 995.20 993.99 992.89 991.78 990.78 989.84 988.78 987.99 987.31 986.53 986.80 987.26 987.96 988.73 989.89 990.55 990.89 991.42 992.32 993.53 993.12 991.81 990.33 989.44 988.52 990.19 993.48 993.16 994.85 996.39 997.47 998.66 999.99 1000.83 1000.70 1001.20 1002.29 1002.16 1002.26 1001.35 1001.88 1002.25 1002.17 1002.02 1002.18 1001.80 1002.68 1003.16 1003.77 1004.14 1004.41
998.99 998.01 997.01 995.93 994.80 993.68 992.67 991.72 990.70 989.60 988.73 988.02 987.20 986.48 987.11 987.83 988.61 989.60 990.49 991.26 992.14 993.14 993.54 993.57 992.87 991.77 990.71 989.69 989.16 991.60 994.35 995.16 995.98 996.32 997.74 999.42 1000.37 1000.78 1001.21 1001.66 1001.78 1001.94 1002.01 1001.85 1002.20 1002.42 1002.06 1001.96 1002.52 1003.18 1003.80 1004.27 1004.58 1004.98
999.33 998.39 997.39 996.46 995.46 994.40 993.34 992.40 991.64 990.60 989.80 989.30 988.46 986.76 986.86 987.63 988.46 989.41 990.74 991.67 991.71 992.95 993.51 994.20 993.38 992.95 992.41 991.44 991.07 991.23 993.42 994.89 996.05 996.90 997.75 998.88 1000.12 1001.20 1001.04 1000.94 1001.03 1001.06 1001.44 1001.28 1001.56 1001.75 1002.11 1002.33 1002.87 1003.32 1004.08 1004.67 1004.84 1005.39
999.62 998.68 997.79 996.79 995.92 994.95 993.93 992.99 992.22 991.67 990.92 990.35 990.17 989.75 988.99 989.07 989.22 990.14 991.37 992.14 992.03 992.45 993.06 994.11 993.83 993.86 993.29 992.58 992.65 993.36 994.03 994.96 995.81 997.02 997.69 998.88 999.77 1000.31 1000.66 1000.44 1000.27 1000.20 999.95 1000.10 1000.23 1001.09 1001.28 1002.10 1002.93 1003.55 1004.26 1004.68 1005.00 1005.27
999.99 999.00 998.02 997.22 996.24 995.42 994.50 993.50 992.82 992.11 991.80 991.26 990.94 990.77 990.43 990.33 990.55 990.46 991.78 992.72 992.52 992.54 992.77 993.91 995.35 994.88 994.19 993.64 993.45 994.13 994.53 995.31 995.84 996.80 997.96 998.93 999.63 999.36 999.48 999.42 999.39 999.71 999.96 999.92 1000.41 1000.96 1001.71 1002.68 1003.41 1003.89 1004.20 1004.53 1004.94 1005.28
1000.08 999.33 998.46 997.51 996.71 995.75 994.87 994.02 993.04 992.47 991.89 991.83 991.46 991.10 990.89 990.92 990.80 991.19 992.36 993.18 992.97 992.72 992.77 993.97 995.23 995.75 995.26 994.74 994.73 995.41 995.96 996.37 996.30 996.95 998.08 998.50 999.17 998.74 998.67 998.36 998.92 999.60 1000.07 1000.63 1001.00 1001.69 1002.42 1002.86 1003.09 1003.77 1004.25 1004.57 1005.15 1005.30
1000.10 999.39 998.67 997.80 996.96 996.15 995.23 994.25 993.43 992.54 992.12 991.67 991.70 991.58 991.69 991.63 991.32 991.97 992.92 993.18 993.33 993.00 993.42 994.39 995.59 995.83 995.54 995.33 995.54 996.05 996.13 996.32 996.90 997.95 998.90 998.75 999.05 998.80 998.51 998.67 999.10 999.51 1000.07 1000.67 1001.24 1001.72 1001.94 1002.67 1003.28 1003.85 1004.30 1004.62 1005.00 1005.27
1000.18 999.49 998.75 998.02 997.17 996.36 995.57 994.66 993.64 992.85 992.04 991.70 991.43 991.23 991.29 991.80 992.28 992.66 993.02 993.23 993.18 993.17 993.72 994.77 995.07 995.84 996.34 996.39 996.08 995.95 996.07 997.36 998.87 998.87 998.78 998.45 998.71 998.54 998.55 998.59 999.06 999.62 999.93 1000.40 1001.04 1001.53 1002.03 1002.59 1003.20 1003.97 1004.55 1004.86 1005.13 1005.32
1000.32 999.64 998.92 998.15 997.39 996.56 995.75 994.98 993.94 992.98 992.32 991.64 991.19 991.53 992.43 992.55 992.98 992.73 992.94 992.79 992.97 993.39 994.17 995.01 995.17 995.72 995.74 995.12 995.81 996.94 997.65 998.03 998.17 998.90 998.54 998.65 998.60 999.12 999.52 999.49 999.58 999.92 1000.14 1000.40 1001.05 1001.69 1002.19 1003.00 1003.87 1004.32 1004.56 1005.15 1005.70 1005.89
1000.43 999.76 999.05 998.30 997.58 996.84 995.99 995.20 994.39 993.08 992.36 992.45 992.88 993.02 992.90 992.72 991.98 992.11 992.57 992.77 993.15 993.96 994.67 995.44 994.93 995.19 995.91 995.48 996.45 997.19 997.23 997.44 997.46 998.68 998.67 998.55 998.47 999.19 999.97 1000.21 1000.22 1000.44 1000.68 1001.14 1001.65 1002.29 1003.00 1003.56 1004.10 1004.67 1005.15 1005.62 1005.90 1006.19
1000.42 999.84 999.20 998.55 997.84 997.06 996.39 995.66 994.98 994.18 994.36 994.67 994.41 993.90 993.17 992.69 992.60 992.82 993.55 993.67 993.46 994.45 995.24 995.50 996.19 996.47 996.46 996.33 996.51 997.37 997.35 997.80 997.74 998.39 998.22 998.24 998.87 1000.19 1001.07 1001.41 1001.42 1001.42 1001.76 1002.22 1002.77 1003.34 1004.00 1004.58 1005.10 1005.40 1005.68 1006.00 1006.33 1006.63
1000.36 999.83 999.27 998.75 998.12 997.36 996.74 996.11 995.57 995.30 994.78 994.19 993.97 993.64 993.35 993.43 993.14 993.06 993.45 993.81 994.25 994.78 995.40 995.78 996.27 996.37 996.86 997.00 997.50 997.71 997.84 998.24 998.76 998.68 998.39 998.29 999.72 1000.98 1001.78 1002.13 1002.43 1002.59 1002.77 1003.14 1003.71 1004.14 1004.68 1005.17 1005.58 1005.94 1006.23 1006.50 1006.71 1006.66
1000.36 999.83 999.33 998.89 998.26 997.52 997.02 996.50 995.89 995.24 994.50 994.31 994.12 994.22 994.37 994.31 994.46 994.32 993.57 993.97 995.12 994.79 995.53 996.14 996.77 996.97 997.50 997.55 997.72 997.78 998.55 998.62 998.33 998.15 997.96 998.92 1000.04 1000.98 1001.82 1002.45 1002.94 1003.37 1003.79 1004.12 1004.46 1004.76 1005.16 1005.53 1005.94 1006.40 1006.63 1006.71 1006.65 1006.45
1000.29 999.77 999.39 999.05 998.31 997.70 997.17 996.68 996.29 995.57 995.23 995.06 994.87 995.14 995.27 995.69 995.50 995.44 995.34 995.29 995.35 995.50 995.93 996.34 996.86 997.11 997.50 997.76 997.66 998.05 998.45 997.83 997.43 997.11 997.49 998.65 999.96 1001.01 1001.97 1002.80 1003.38 1003.82 1004.32 1004.59 1004.91 1005.31 1005.64 1006.05 1006.25 1006.42 1006.54 1006.46 1006.39 1006.52
1000.13 999.74 999.57 999.05 998.42 997.83 997.22 996.70 996.36 996.12 996.07 995.81 995.95 996.08 996.15 995.46 995.69 995.54 995.59 996.02 996.30 996.21 996.38 996.47 996.88 997.09 997.39 997.24 997.24 997.14 997.12 996.94 996.88 997.23 997.93 999.31 1000.19 1001.12 1002.02 1002.83 1003.50 1003.94 1004.34 1004.68 1005.11 1005.55 1005.87 1006.01 1006.06 1006.20 1006.33 1006.34 1006.38 1006.24
1000.12 999.90 999.80 999.04 998.43 997.85 997.55 996.85 996.62 996.85 996.54 996.48 996.86 997.05 996.64 996.23 996.19 996.32 996.06 996.48 996.70 996.37 996.39 996.63 996.73 996.83 997.25 996.88 996.74 996.70 996.87 997.04 997.38 998.20 998.73 999.49 1000.37 1001.38 1002.27 1003.10 1003.74 1004.18 1004.53 1004.86 1005.36 1005.67 1005.81 1005.93 1006.01 1006.03 1006.05 1006.03 1006.09 1006.05
1000.07 999.99 999.58 999.13 998.69 998.04 997.81 997.62 997.49 997.31 997.05 997.22 997.06 997.36 997.24 997.13 996.91 996.94 997.01 997.28 996.90 996.71 996.74 996.85 996.88 996.78 996.67 996.41 996.39 996.79 997.55 998.30 998.33 998.88 999.39 1000.20 1001.02 1001.84 1002.50 1003.01 1003.68 1004.05 1004.45 1004.95 1005.27 1005.52 1005.71 1005.82 1005.71 1005.65 1005.82 1005.96 1005.93 1005.81
1000.25 1000.05 999.82 999.19 999.00 998.80 998.62 998.44 998.46 997.99 997.89 997.87 997.84 997.86 997.66 997.51 997.56 997.65 997.47 997.71 997.44 997.19 997.25 997.22 997.12 996.74 996.65 996.76 996.83 997.39 998.01 998.40 999.04 999.68 1000.47 1001.07 1001.66 1002.28 1002.84 1003.30 1003.79 1004.24 1004.56 1004.81 1005.00 1005.20 1005.49 1005.70 1005.56 1005.69 1005.92 1006.00 1005.90 1005.83
1000.33 1000.05 999.77 999.59 999.28 998.96 998.73 998.77 999.09 998.61 998.21 998.25 998.24 998.01 997.72 997.67 997.86 997.93 997.98 997.98 997.74 997.49 997.65 997.60 997.38 997.18 997.14 997.19 997.35 997.52 998.07 998.79 999.27 999.92 1000.59 1001.39 1002.10 1002.72 1003.00 1003.18 1003.43 1003.96 1004.37 1004.71 1004.97 1005.20 1005.32 1005.56 1005.89 1006.01 1005.98 1005.91 1005.77 1005.60
1000.24 1000.10 999.92 999.62 999.19 999.40 999.58 999.21 998.79 998.79 998.46 998.38 998.42 998.22 997.76 997.93 997.77 997.80 997.91 998.09 998.23 998.22 998.19 998.05 998.44 998.53 998.66 998.55 998.43 998.28 998.42 998.66 998.85 999.17 999.88 1000.95 1001.85 1002.37 1002.88 1003.12 1003.59 1003.93 1004.17 1004.49 1004.66 1005.19 1005.41 1005.51 1005.76 1005.84 1005.84 1005.76 1005.62 1005.61
1000.35 1000.40 1000.05 1000.04 1000.01 1000.02 999.92 999.58 999.24 998.92 998.88 998.41 998.41 998.14 997.92 997.89 997.81 997.81 998.04 998.47 998.86 1000.08 1000.42 1000.48 1000.32 1000.09 999.55 999.22 999.26 999.26 999.09 998.98 999.34 999.86 1000.24 1000.85 1001.51 1002.03 1002.48 1002.98 1003.43 1003.77 1004.10 1004.34 1004.57 1004.86 1005.23 1005.38 1005.65 1005.77 1005.74 1005.67 1005.71 1005.55
1000.66 1000.55 1000.53 1000.42 1000.41 1000.32 1000.18 999.73 999.25 998.88 998.87 998.37 998.47 998.35 998.05 997.89 997.73 997.97 998.56 1000.19 1001.54 1002.33 1002.24 1001.80 1001.42 1001.00 1000.48 1000.04 999.94 999.77 999.76 999.54 999.63 999.95 1000.42 1000.83 1001.31 1001.97 1002.61 1003.11 1003.39 1003.60 1003.94 1004.40 1004.76 1005.08 1005.34 1005.84 1005.76 1005.78 1005.71 1005.67 1005.56 1005.41
1001.01 1000.89 1000.97 1000.89 1000.78 1000.86 1000.58 1000.02 999.54 999.25 998.87 998.80 998.74 998.64 998.33 998.47 998.41 998.59 1000.23 1002.05 1003.32 1003.37 1003.13 1002.77 1001.95 1000.89 1000.13 1000.32 1000.51 1000.64 1000.59 1000.19 999.99 1000.32 1000.72 1001.11 1001.69 1002.35 1002.88 1003.47 1003.80 1004.02 1004.13 1004.47 1004.96 1005.41 1005.75 1005.95 1006.13 1005.82 1005.81 1005.65 1005.55 1005.51
1001.39 1002.26 1002.20 1001.83 1001.66 1001.46 1001.23 1000.89 1000.65 1000.27 1000.16 1000.07 999.83 999.72 1000.02 1000.05 1000.07 1000.99 1002.18 1003.68 1004.40 1004.60 1004.51 1004.02 1003.25 1002.78 1002.23 1002.19 1002.22 1002.13 1002.04 1001.46 1000.73 1001.01 1001.42 1001.55 1002.04 1002.71 1003.40 1004.04 1004.61 1004.91 1004.99 1005.09 1005.41 1005.73 1006.01 1006.22 1006.29 1006.19 1006.07 1005.87 1005.71 1005.51
1001.93 1002.65 1002.59 1002.44 1002.38 1002.19 1002.04 1001.81 1001.70 1001.61 1001.45 1001.31 1001.44 1001.64 1001.39 1001.38 1001.94 1003.01 1004.37 1005.27 1005.67 1005.90 1005.84 1005.58 1005.01 1004.53 1004.36 1004.30 1003.94 1003.63 1003.36 1002.88 1002.26 1002.45 1003.11 1003.06 1002.99 1003.02 1003.71 1004.49 1005.19 1005.93 1006.09 1005.97 1005.83 1005.99 1006.16 1006.29 1006.32 1006.30 1006.22 1006.12 1006.03 1005.74
1002.57 1002.97 1003.07 1003.23 1003.06 1002.93 1002.98 1003.15 1003.04 1002.91 1002.85 1002.78 1002.81 1002.87 1002.79 1003.05 1003.88 1005.22 1006.05 1006.68 1006.72 1007.04 1007.02 1006.92 1006.56 1006.16 1005.99 1005.77 1005.49 1005.09 1004.51 1004.07 1003.84 1004.27 1004.74 1004.86 1004.97 1005.01 1004.87 1005.11 1005.98 1006.86 1006.94 1006.91 1006.83 1006.69 1006.62 1006.54 1006.47 1006.42 1006.34 1006.20 1006.04 1006.00
1003.26 1003.58 1003.72 1004.08 1004.01 1004.10 1004.11 1004.09 1004.13 1004.10 1004.14 1004.28 1004.08 1004.09 1004.44 1005.04 1005.76 1006.70 1007.17 1007.59 1007.63 1007.67 1007.67 1007.70 1007.64 1007.39 1007.18 1007.05 1006.76 1006.26 1005.74 1005.60 1005.59 1005.62 1005.75 1006.06 1006.40 1006.74 1007.07 1007.38 1007.75 1007.92 1007.80 1007.84 1007.64 1007.50 1007.33 1007.17 1006.96 1006.74 1006.50 1006.30 1006.14 1006.07
1003.91 1004.37 1004.58 1004.99 1005.04 1004.95 1005.05 1005.11 1005.09 1005.36 1005.69 1005.25 1005.07 1005.13 1005.77 1006.68 1007.36 1007.47 1007.86 1008.06 1008.14 1008.04 1008.06 1008.06 1008.17 1008.03 1007.85 1007.68 1007.57 1007.37 1007.13 1006.72 1006.16 1006.21 1006.37 1006.67 1007.00 1007.57 1007.79 1007.92 1007.99 1008.10 1008.15 1007.99 1008.03 1007.95 1007.70 1007.52 1007.24 1007.03 1006.80 1006.52 1006.24 1006.10
1004.77 1005.02 1005.14 1005.71 1005.67 1005.61 1006.06 1006.42 1006.42 1006.78 1006.62 1006.47 1006.30 1006.44 1006.86 1007.45 1008.02 1008.39 1008.36 1008.40 1008.39 1008.49 1008.78 1008.88 1008.88 1008.66 1008.58 1008.36 1008.24 1008.20 1008.35 1008.29 1008.13 1007.90 1007.74 1007.71 1007.84 1008.08 1008.15 1008.20 1008.23 1008.30 1008.40 1008.28 1008.06 1007.84 1007.71 1007.50 1007.14 1006.95 1006.86 1006.51 1006.15 1005.82
1005.51 1005.43 1005.57 1005.78 1006.03 1006.56 1007.17 1007.63 1007.70 1007.72 1007.34 1006.95 1007.17 1006.94 1007.19 1007.73 1008.21 1008.46 1008.57 1008.79 1008.91 1009.00 1009.00 1009.06 1009.18 1009.32 1009.27 1009.24 1009.10 1008.94 1008.80 1008.96 1009.19 1009.14 1009.18 1008.90 1008.56 1008.40 1008.42 1008.54 1008.59 1008.63 1008.57 1008.42 1008.21 1007.96 1007.78 1007.50 1007.04 1006.77 1006.61 1006.43 1006.22 1006.05
1005.97 1006.11 1006.11 1006.28 1006.73 1007.55 1007.75 1007.70 1007.62 1007.29 1007.35 1007.10 1007.28 1007.70 1008.04 1008.00 1007.86 1008.03 1008.41 1008.79 1008.88 1008.87 1009.26 1009.39 1009.42 1009.43 1009.80 1009.88 1009.93 1009.86 1009.81 1009.72 1009.52 1009.49 1009.44 1009.25 1008.88 1008.73 1008.74 1008.76 1008.83 1008.77 1008.60 1008.49 1008.24 1007.95 1007.78 1007.55 1007.12 1006.78 1006.62 1006.52 1006.41 1006.34
1007.00 1007.03 1007.07 1006.98 1007.04 1007.37 1007.98 1008.01 1007.77 1007.56 1007.51 1007.45 1007.78 1008.24 1008.25 1008.23 1007.85 1007.88 1008.80 1008.96 1008.78 1008.91 1009.16 1009.41 1009.60 1009.72 1009.83 1009.97 1009.94 1009.87 1010.10 1009.80 1009.87 1009.91 1009.84 1009.72 1009.62 1009.41 1009.12 1008.92 1008.96 1008.86 1008.71 1008.48 1008.15 1007.88 1007.64 1007.32 1007.13 1006.92 1006.80 1006.86 1006.88 1006.94
Wind_Speed
29 30 31 32 32 32 32 32 31 29 27 17 20 21 21 21 23 15 8 9 5 3 3 6 11 14 8 12 10 10 8 1 3 5 6 5 5 8 5 12 13 13 13 8 6 7 13 16 17 12 8 10 10 7
28 28 29 30 30 30 30 31 28 28 26 24 10 20 23 22 22 21 2 3 5 2 3 3 8 11 2 15 14 15 4 10 7 6 4 6 5 6 11 10 9 8 5 8 10 5 7 21 8 9 8 10 7 6
26 27 27 28 29 29 29 28 29 26 25 25 25 15 17 18 20 14 5 5 5 3 1 4 6 10 15 4 12 10 3 6 6 4 8 4 6 5 8 6 8 5 5 4 7 8 10 18 7 11 8 6 5 3
25 26 27 27 27 28 28 28 26 26 24 25 26 20 18 17 21 11 5 1 5 4 2 4 6 5 9 11 14 12 16 12 11 5 5 5 5 3 4 6 5 6 13 12 4 11 9 11 14 12 8 3 1 4
24 24 25 27 26 27 28 27 25 23 22 20 25 26 29 29 28 16 8 4 1 1 4 3 6 8 6 14 20 19 18 18 10 4 4 4 5 6 3 6 6 9 13 10 6 14 7 15 12 8 8 7 6 6
22 24 24 24 26 26 27 27 25 21 19 18 13 19 19 14 7 3 4 5 6 5 3 4 1 11 13 15 19 18 12 6 4 5 5 4 4 3 5 5 6 10 11 8 7 12 8 11 9 9 7 5 5 7
20 22 24 25 25 26 27 26 26 22 19 15 13 15 5 1 4 4 5 3 6 4 3 4 4 5 2 9 8 10 8 4 4 5 4 4 4 2 3 4 10 11 10 8 12 12 9 9 6 5 3 3 5 5
21 22 23 24 24 25 26 27 27 24 17 15 8 10 11 16 12 8 5 6 2 3 4 4 4 4 6 3 4 3 4 4 7 5 3 4 4 1 3 9 9 11 11 10 10 7 8 8 6 5 5 5 5 7
19 20 21 22 24 24 25 26 28 25 18 12 7 2 3 6 4 2 14 6 2 2 4 2 4 5 1 2 2 4 5 6 0 3 3 2 3 2 5 10 11 11 10 12 10 8 8 5 4 5 6 7 6 8
19 19 20 21 22 23 24 25 28 26 13 9 5 4 3 3 12 9 2 2 3 3 3 3 2 5 2 2 5 4 2 2 3 3 4 1 3 3 4 5 8 10 9 10 11 9 7 7 7 6 4 4 6 7
18 19 20 21 21 22 23 24 26 26 8 5 4 3 4 10 3 4 4 4 3 4 4 2 8 8 3 5 4 2 3 2 3 5 3 4 3 5 5 3 7 7 9 7 5 4 6 4 5 4 5 5 6 6
18 18 19 19 23 21 21 22 24 11 5 4 4 3 3 4 2 5 3 1 4 4 2 7 5 4 4 2 4 2 4 0 4 6 2 3 5 8 8 7 8 9 10 10 9 8 6 3 2 4 4 5 6 6
17 17 18 17 21 20 20 20 21 16 6 2 1 3 4 4 4 3 4 3 5 4 4 5 5 3 3 3 4 2 3 4 8 4 4 2 10 10 10 9 10 9 9 8 7 5 4 4 3 3 4 5 5 6
18 18 15 15 22 20 17 19 19 10 4 3 4 5 5 3 4 3 5 7 3 10 11 8 5 3 3 2 2 4 4 5 5 5 5 8 11 11 10 8 9 9 7 6 5 4 4 4 4 4 3 4 4 5
18 18 8 13 19 20 19 19 14 4 3 3 3 4 4 2 3 3 2 8 7 8 7 6 4 3 3 4 1 4 5 5 5 4 4 9 12 11 11 10 9 8 6 6 6 5 4 3 4 3 1 3 4 5
17 9 7 19 20 21 19 13 4 3 2 2 4 3 2 4 5 7 8 8 5 6 4 3 3 3 2 3 4 4 5 5 3 3 6 11 13 12 12 10 9 8 7 6 6 5 4 2 2 2 2 2 4 4
9 3 16 18 20 19 12 5 4 4 3 2 3 2 2 3 4 3 3 5 4 3 2 2 3 3 3 3 4 2 2 3 6 7 7 11 12 11 9 9 7 6 6 7 6 4 3 1 1 1 2 4 5 4
4 9 15 17 14 7 4 5 3 3 4 3 2 2 1 2 2 3 3 4 4 3 3 2 3 4 4 4 3 3 3 3 5 8 8 9 10 9 9 10 7 6 6 6 5 4 3 2 1 1 2 3 4 3
8 9 13 13 5 3 4 4 3 4 4 3 2 1 2 0 1 1 3 3 1 2 4 2 2 3 2 2 2 4 4 5 6 6 6 7 8 8 7 6 7 6 7 6 5 4 3 2 2 2 1 2 2 3
8 7 13 6 5 3 2 2 1 3 4 3 2 2 2 2 2 2 3 3 3 2 2 3 2 0 0 2 1 3 5 6 7 7 7 6 6 7 7 7 5 7 5 5 4 3 4 3 2 0 1 2 2 3
4 6 7 5 2 3 3 3 2 2 3 3 3 3 2 0 1 2 3 4 3 2 3 2 3 4 5 4 4 1 4 8 7 6 6 7 7 7 6 5 6 5 5 4 5 5 3 2 1 1 2 2 2 2
2 5 3 4 2 2 1 2 4 4 2 3 2 2 3 2 3 3 4 4 1 5 5 5 5 7 7 5 4 5 2 7 5 6 6 10 9 7 6 6 6 6 5 5 4 4 3 2 1 1 2 3 3 2
0 1 1 2 2 2 2 3 3 1 3 1 1 3 3 2 2 5 4 5 4 5 7 7 10 9 9 9 6 4 4 7 6 6 7 7 7 7 6 5 4 6 6 5 4 4 3 2 2 1 2 2 2 2
1 3 3 2 3 3 3 3 2 3 3 2 2 3 2 4 2 1 4 3 5 7 8 11 9 8 3 3 3 4 4 3 5 7 8 8 8 7 7 5 4 3 4 5 5 4 3 3 2 2 3 3 1 1
1 4 3 3 3 3 3 4 4 3 4 4 5 4 4 4 3 4 4 3 6 8 9 9 8 9 7 5 5 6 9 6 4 7 4 6 8 8 7 7 6 5 3 5 5 5 4 3 3 3 4 4 4 3
3 3 2 2 1 2 2 2 3 4 3 4 4 4 4 3 3 4 3 4 5 6 8 8 8 6 8 8 7 7 8 7 4 7 7 6 2 6 9 8 7 4 3 2 3 4 4 3 2 2 2 3 4 4
3 3 2 3 2 2 1 2 2 2 3 4 4 5 4 3 4 4 3 4 4 4 5 6 6 6 6 7 7 7 6 7 8 8 7 8 8 9 7 2 6 4 3 3 3 2 1 0 0 1 3 3 4 4
2 1 3 1 2 2 2 2 2 2 3 4 4 4 4 4 3 2 3 3 3 3 4 5 6 5 5 6 6 7 5 5 8 8 8 9 8 8 8 6 5 6 4 4 3 1 1 3 3 4 5 5 5 5
3 2 2 3 1 2 1 1 1 3 3 2 3 2 1 2 1 1 2 2 2 2 3 4 5 4 4 4 5 6 7 7 4 6 6 4 3 5 4 4 3 3 3 3 3 3 4 4 5 5 6 6 5 6
3 0 3 2 2 2 3 3 2 3 2 3 3 1 2 2 2 1 1 1 1 2 3 3 4 5 5 5 5 5 6 7 7 6 4 3 4 3 2 2 3 3 3 4 4 4 3 3 4 4 4 4 5 5
1 2 3 1 2 2 3 3 1 1 1 0 1 2 1 1 2 3 2 1 2 3 3 2 2 3 4 4 4 4 2 3 6 5 5 4 3 2 2 3 3 3 3 4 5 5 4 5 4 5 6 6 6 6
1 2 2 3 3 2 1 1 1 0 1 2 2 1 2 2 3 3 4 3 4 4 3 1 1 2 2 2 2 3 4 4 4 5 6 4 4 4 5 4 3 4 4 5 5 5 6 7 6 5 5 7 6 5
2 1 1 1 3 3 2 1 1 2 1 1 1 1 1 2 3 2 3 1 2 3 2 1 2 3 5 5 4 3 2 3 5 5 5 6 6 5 5 3 3 4 5 6 6 6 7 7 7 6 5 4 3 2
Wind_Direction
0 2 4 6 10 15 21 25 29 32 18 206 182 191 198 198 190 185 195 196 173 219 339 344 296 173 165 158 143 153 111 231 122 134 151 138 150 178 145 168 177 170 161 179 179 212 237 156 157 181 109 123 126 149
358 0 3 5 7 10 15 21 28 27 29 22 219 195 198 195 191 185 133 156 97 125 355 296 319 7 233 180 125 178 61 134 144 124 142 130 167 159 152 180 214 190 191 163 192 196 125 168 154 128 144 142 137 151
357 358 1 3 5 7 9 15 21 26 32 33 18 209 199 178 188 174 118 120 86 104 51 28 313 346 13 21 138 131 154 127 129 75 122 110 133 168 171 184 148 187 132 137 153 181 175 180 144 167 161 141 134 164
356 357 357 1 2 4 7 10 17 24 32 47 35 41 179 186 168 121 112 33 83 91 74 3 325 15 339 60 79 92 111 88 110 108 90 117 119 218 162 156 166 190 172 158 118 157 144 182 185 173 163 151 178 215
351 355 358 357 1 2 3 7 11 22 32 51 72 54 85 90 92 85 77 56 68 120 122 108 53 36 109 98 97 100 112 124 130 118 100 95 124 141 118 164 169 181 178 175 187 161 171 177 191 204 199 204 215 241
351 350 353 357 356 359 0 -0 5 10 28 51 69 110 108 86 57 92 94 23 8 21 92 93 57 57 92 99 110 118 108 85 80 95 92 95 105 164 150 176 129 152 170 174 137 143 142 134 154 171 207 231 251 254
351 351 351 351 355 354 356 357 357 3 8 38 68 63 129 125 46 64 74 101 332 307 79 84 75 356 35 103 84 96 89 84 83 89 67 117 127 170 139 143 149 171 169 142 137 138 152 170 156 169 211 214 165 258
352 353 351 348 350 352 352 351 354 354 1 5 48 95 117 116 108 62 44 18 8 93 45 85 98 93 7 57 75 19 87 75 40 76 144 130 137 109 154 129 131 143 146 155 157 173 132 131 135 160 173 190 243 252
354 353 352 350 348 349 350 349 349 352 347 354 2 109 123 43 33 357 318 306 252 124 100 78 123 109 104 116 130 68 43 60 176 123 105 173 141 162 85 152 153 149 159 157 154 156 154 164 169 170 194 217 256 275
354 354 351 349 347 345 347 349 346 347 347 337 24 35 45 4 318 294 170 111 47 60 70 81 159 106 174 89 62 94 91 125 137 68 121 122 131 128 117 115 149 158 141 139 145 157 162 180 191 196 225 263 264 277
347 350 350 351 352 347 346 350 352 344 2 32 32 28 322 311 301 26 42 36 48 83 69 58 110 115 7 99 108 23 104 85 100 119 190 152 172 120 73 139 172 137 145 142 155 150 160 172 181 221 244 254 270 274
340 344 348 352 355 354 350 351 355 4 5 1 313 264 293 3 30 66 45 62 31 86 112 124 88 73 76 22 86 64 80 188 88 134 113 179 121 131 117 119 140 155 145 133 136 135 132 141 195 247 262 264 271 286
342 344 347 351 353 350 349 348 349 344 296 259 317 31 344 351 40 47 127 106 111 113 135 132 85 61 96 57 77 108 115 89 140 178 197 137 142 150 144 132 118 110 114 125 137 142 153 177 185 231 244 260 266 265
343 339 347 355 352 350 353 347 344 342 315 2 2 27 12 42 39 16 64 87 89 129 132 127 109 102 110 95 117 98 91 162 186 187 203 151 154 148 147 138 140 145 145 156 175 183 183 184 201 219 241 270 267 284
333 340 358 351 350 348 344 344 341 345 359 32 347 49 47 53 51 53 103 102 93 114 118 110 78 73 78 106 100 123 162 187 211 205 130 146 141 141 145 151 152 155 162 170 171 172 177 206 217 236 260 324 325 301
333 319 352 348 347 344 338 335 346 354 37 29 51 108 104 128 92 91 96 100 122 124 106 88 124 123 106 131 170 181 174 201 166 136 132 137 153 158 158 159 159 162 166 159 152 168 177 189 211 287 323 345 335 317
330 325 342 339 339 337 347 338 357 27 18 49 69 41 25 61 76 89 118 113 151 170 103 135 137 92 127 186 175 180 188 70 123 123 137 146 154 155 151 156 160 162 162 157 149 146 139 151 174 296 342 355 341 325
319 323 330 334 336 348 351 15 7 349 51 42 39 56 17 358 82 119 111 147 170 164 191 114 150 180 173 176 167 141 109 97 111 145 140 142 140 152 165 166 158 164 164 147 149 151 143 170 194 59 357 357 335 328
333 334 338 337 352 352 359 16 7 6 24 1 11 352 305 339 224 49 119 153 11 108 131 162 152 188 180 190 127 128 154 154 145 134 128 132 138 143 136 133 143 146 157 161 161 161 145 95 49 29 1 329 328 330
329 329 341 30 356 3 302 69 346 353 5 2 329 330 314 18 58 111 125 166 153 169 157 195 224 86 88 90 119 106 147 157 145 143 152 153 142 149 162 168 153 140 143 139 143 159 133 122 118 97 335 318 321 336
307 355 339 326 27 32 356 339 330 345 332 334 328 307 356 22 215 169 161 175 192 210 222 249 39 28 1 353 340 278 155 173 180 175 172 170 168 169 162 158 149 159 151 164 163 142 163 135 123 336 331 330 320 311
12 342 341 17 49 36 335 328 312 318 292 305 278 253 253 227 211 204 159 189 157 42 8 352 348 336 327 332 338 290 289 186 145 123 112 135 159 166 166 165 162 159 161 166 162 148 131 113 56 336 317 315 311 296
15 35 23 353 58 30 29 309 281 217 273 250 302 273 229 222 195 153 169 51 59 10 342 333 321 297 279 286 282 265 195 185 165 150 148 156 152 146 143 145 157 160 153 147 135 135 126 59 78 9 354 327 300 323
328 33 2 26 20 15 328 318 296 290 298 276 241 259 297 1 220 163 77 68 19 3 4 352 343 315 255 65 48 37 4 246 164 148 157 156 147 144 137 130 119 99 113 127 129 121 107 93 27 55 27 33 47 7
203 37 344 50 8 13 18 1 355 356 344 323 317 351 10 335 33 45 53 57 27 15 8 3 14 20 31 44 35 33 20 353 183 131 110 160 139 133 125 110 93 73 118 138 138 137 125 112 85 59 41 37 33 23
92 25 353 76 35 5 0 335 17 358 341 314 15 347 327 355 46 62 63 22 31 12 11 8 11 21 34 22 17 9 358 345 66 90 52 34 58 155 148 154 146 111 51 58 139 148 147 135 103 35 13 7 12 6
132 145 100 34 337 323 46 37 359 5 5 360 0 344 344 28 62 65 95 29 17 16 12 10 6 19 18 9 3 359 5 36 55 72 72 61 52 33 32 101 120 80 56 59 64 56 97 172 355 346 329 321 320 318
99 99 158 93 71 19 89 36 57 58 46 3 336 13 21 23 60 55 36 29 14 22 30 30 21 16 17 11 4 3 22 72 89 95 91 71 61 59 61 66 59 53 50 30 22 358 307 302 304 301 297 298 305 302
104 88 122 69 70 99 91 97 108 75 4 326 327 340 57 76 50 156 83 32 21 35 41 34 27 11 24 36 32 28 26 16 35 75 78 83 103 66 45 52 52 42 22 3 12 329 308 287 277 282 286 283 288 289
115 98 104 94 134 149 101 3 53 30 344 342 320 160 158 138 121 118 137 80 73 83 75 54 27 23 24 16 26 47 49 37 31 24 27 42 20 359 347 14 17 20 357 345 341 330 321 304 280 241 253 269 268 271
60 159 111 117 131 91 44 353 244 203 324 67 23 298 34 117 188 192 204 152 161 166 176 143 88 40 23 20 9 3 27 70 27 18 5 323 330 331 347 343 336 329 322 316 318 316 320 307 297 295 291 291 290 279
71 81 140 157 142 90 40 354 1 26 54 208 135 142 165 221 249 175 171 183 182 178 130 141 7 30 13 324 287 286 301 303 319 344 338 330 317 325 318 315 308 301 301 296 291 291 290 288 287 287 290 289 293 296
118 122 80 164 157 154 88 297 46 330 192 202 124 346 296 299 274 123 139 227 222 148 139 77 353 331 327 317 314 314 235 294 306 298 307 303 296 300 297 290 292 287 286 284 284 281 277 275 275 281 282 286 286 300